軌道要素
Epoch 2015 June 27.0 TT = JDT 2457200.5
T 2015 June 25.77704 TT MPCW
q 2.1654651 (2000.0) P Q
n 0.06880158 Peri. 300.54030 +0.93197346 +0.21926304
a 5.8984394 Node 48.51515 -0.00172923 +0.79904238
e 0.6328749 Incl. 22.66755 -0.36252240 +0.55987052
P 14.3
From 244 observations 2015 Sept. 8-2016 Jan. 13, mean residual 0".4.
|